Volver al catálogo

COSMOS 1275 DEB

ActivoPO
NORAD 42209·DEBRIS·🇷🇺 Russia

Lanzado Jun 4, 1981 desde Plesetsk Cosmodrome

Loading…

Próximos Pases (próximas 24 horas)

TLE

ActualizadoSource: Space-Track

Época: Sep 14, 2026, 21:39 UTC

1 42209U 81053TZ  26257.90218169  .00000341  00000-0  26602-3 0  9999
2 42209  82.8779 324.7047 0052210 343.1379  16.8046 13.88954341648118

Sigue COSMOS 1275 DEB en tiempo real con AllMySat

Download on the App Store